Aérodrome :
LOGIN :

S'inscrire | Disclaimer

   EN    FR    IT 

 










Légende :    VFR   VFR Marginal   IFR   IFR Intensif   IFR Très Intensif
Visi : 
Plafond : 
>= 8 km
>= 3000ft
5 à 8 km
1000 à 3000 ft
1500m à 5 km
500 à 1000 ft
800 à 1500m
200 à 500 ft
< 800m
< 200 ft
Symboles :   Orages  Brouillard  Fortes neiges  Fortes précipitations  Vent > 20 kt
SIGMETs :   Divers  Orages  Givrage  Turbulence  Onde Orograph.  Cendres Volcan.







- Altitude de l'aérodrome : 26 ft
- Code IATA : SYY
- Voir les cartes d'approche


EGPO - Stornoway

DERNIER METAR :
  • 212020Z AUTO 20014KT 9999 FEW036/// OVC046/// 12/10 Q1005

METARs EXPIRÉS :
  • 211950Z AUTO 20016KT 9999 BKN047/// 11/10 Q1006
  • 211920Z AUTO 20015KT 9999 OVC041/// 11/10 Q1006
  • 211850Z AUTO 20017KT 9999 FEW020/// BKN025/// OVC039/// 12/10 Q1006
  • 211820Z AUTO 19018KT 9999 BKN015/// OVC022/// 12/10 Q1007

TAF TAF EGPO
Valide du 21 à 21h jusqu'au 22 à 06h UTC


211959Z 2121/2206 18017KT 9999 BKN040
PROB40
TEMPO 2121/2123 6000 -RA BKN008
TEMPO 2200/2206 18020G30KT
ATIS : +44 1851 707 444
Pas de NOTAMs connus pour ce terrain.



MET'MAP, la Météo Aéronautique d'un coup d'oeil ! - Copyright ORBIFLY Décembre 2007 - Disclaimer

ORBIFLY MET'MAP TEAM :

Programmation & Développement : Alexandra Zaïnal
Conception & Développement : Baudouin d'Aumeries
Co-Programmation & Développement : Marc-Olivier Méhu
Soutien technique & logistique : Manuel Goepfert

Contact : metmap@orbifly.com




SOURCES & CREDITS :

   NOAA